Probability
6 10 45 55 48 55 58 61 61 58 61 55 58 58 52 48 45 52 52 45 48 42 42 42 48 52 45 52 45 45 52 52 42 48 65 55 52 58 58 52 52 48 55
10 16 42 42 42 55 48 55 58 58 55 55 55 58 58 58 52 45 45 48 45 42 42 45 39 42 35 26 29 35 35 48 42 48 45 39 58 58 58 58 52 39 58
10 13 39 42 42 42 42 45 55 55 58 55 55 55 45 48 52 45 35 42 45 39 42 35 32 26 32 29 29 26 29 23 26 32 23 13 26 52 55 58 55 58 48
13 13 23 48 42 48 48 45 45 52 55 48 52 48 45 45 48 42 35 39 39 42 35 29 32 26 23 16 19 16 19 23 23 26 10 10 10 39 52 55 58 55 52
13 13 39 48 45 42 39 48 45 48 48 45 45 42 42 39 39 39 35 29 32 29 23 23 26 19 16 23 26 26 23 26 23 10 6 6 6 39 48 45 45 52 42
13 19 42 48 42 42 35 42 42 42 45 42 42 42 32 23 29 35 35 32 32 23 19 16 19 19 26 23 26 23 26 29 16 3 3 6 10 29 42 39 35 39 42
16 19 32 48 45 45 42 39 39 39 35 35 35 39 32 26 23 26 26 26 23 19 16 19 19 19 23 23 26 16 19 16 3 3 3 6 13 26 29 26 39 35 35
16 19 29 45 48 45 42 29 29 35 26 26 23 19 16 19 19 23 23 26 26 16 19 23 23 23 23 23 23 16 16 10 3 3 3 3 16 29 26 29 32 32 32
10 16 19 32 42 45 45 35 32 23 26 23 19 19 16 16 16 19 26 26 23 16 19 16 19 19 23 26 23 23 16 10 3 0 0 0 19 19 19 19 19 23 26
6 13 16 13 13 16 26 39 29 29 29 26 19 13 13 16 13 19 19 16 19 13 10 13 13 13 16 23 23 19 16 3 3 0 0 3 16 16 16 16 19 19 19
6 10 10 6 6 6 6 19 19 16 16 13 10 13 6 0 0 3 10 13 10 13 10 13 10 10 10 10 13 3 0 0 0 0 0 10 19 19 10 16 16 19 19
6 6 10 6 6 3 3 13 13 13 3 0 0 0 0 0 0 3 6 13 10 6 3 10 6 3 3 3 3 3 0 0 0 0 3 26 23 19 19 19 19 19 19
10 10 10 10 3 3 3 3 3 0 0 0 0 0 0 0 0 0 0 0 0 3 3 0 0 0 0 0 0 0 0 0 0 0 6 19 19 16 19 19 19 16 10
6 10 10 10 6 3 3 3 3 0 0 0 0 0 0 0 0 0 0 0 0 0 0 0 0 0 0 0 0 0 0 0 0 0 0 13 13 10 13 13 6 10 10
3 6 6 6 6 6 3 3 3 0 0 0 0 0 0 0 0 0 0 0 0 0 0 0 0 0 0 0 0 0 0 0 0 0 0 6 13 13 10 6 6 6 10
0 0 3 6 6 6 3 3 0 0 0 0 0 0 0 0 0 0 0 0 0 0 0 0 0 0 0 0 0 0 0 0 0 0 0 0 10 10 16 10 10 6 6
0 0 0 6 6 6 3 3 0 0 0 0 0 0 0 0 0 0 0 0 0 0 0 0 0 0 0 0 0 0 0 0 0 0 0 0 0 3 6 10 13 6 6
0 0 0 3 6 6 6 6 3 0 0 0 0 0 0 0 0 0 0 0 0 0 0 0 0 0 0 0 0 0 0 0 0 0 0 0 0 0 3 6 6 10 6
0 0 0 0 3 6 6 6 3 0 3 0 0 0 0 0 0 0 0 0 0 0 0 0 0 0 0 0 0 0 0 0 0 0 0 0 0 0 0 3 6 6 10
0 0 0 0 3 3 3 3 3 3 0 0 0 0 0 0 0 0 0 0 0 0 0 0 0 0 0 0 0 0 0 0 0 0 0 0 0 0 0 0 0 6 10
0 0 0 0 0 3 0 0 0 3 3 0 0 0 0 0 0 0 0 0 0 0 0 0 0 0 0 0 0 0 0 0 0 0 0 0 0 0 0 0 0 0 0
3 0 0 0 0 0 3 0 0 0 0 0 0 0 0 0 0 0 0 0 0 0 0 0 0 0 0 0 0 0 0 0 0 0 0 0 0 0 0 0 0 0 0
3 3 3 0 0 0 0 0 0 0 0 0 0 0 0 0 0 0 0 0 0 0 0 0 0 0 0 0 0 0 0 0 0 0 0 0 0 0 0 0 0 0 0
0 0 3 3 3 3 3 0 0 0 0 0 0 3 0 0 0 0 0 0 0 0 0 0 0 0 0 0 0 0 0 0 0 0 0 0 0 0 0 0 0 0 0
0 0 0 3 3 3 3 3 3 0 0 0 0 0 3 3 3 0 0 0 0 0 0 0 0 0 0 0 0 0 0 0 0 0 0 0 0 0 0 0 0 0 0
0 0 0 0 3 3 3 3 3 0 0 0 0 3 3 3 3 0 0 0 0 0 0 0 0 0 0 0 0 0 0 0 0 0 0 0 0 0 0 0 0 0 0
Height
5876 5876 5875 5876 5875 5875 5875 5875 5875 5875 5875 5875 5875 5875 5875 5874 5874 5873 5873 5872 5872 5871 5871 5870 5869 5868 5870 5870 5870 5871 5871 5870 5870 5870 5870 5870 5870 5870 5870 5870 5870 5870 5870
5876 5876 5875 5875 5874 5875 5875 5875 5875 5875 5875 5875 5875 5875 5875 5874 5874 5873 5873 5872 5871 5871 5870 5870 5869 5869 5870 5870 5869 5870 5870 5869 5869 5869 5869 5869 5869 5869 5869 5869 5869 5869 5869
5876 5876 5875 5875 5875 5875 5875 5875 5875 5875 5875 5875 5875 5875 5874 5874 5873 5873 5872 5872 5871 5870 5870 5870 5869 5869 5869 5869 5868 5869 5869 5868 5868 5868 5868 5868 5868 5868 5868 5868 5868 5868 5867
5875 5875 5875 5875 5875 5875 5875 5875 5875 5875 5875 5874 5874 5874 5874 5873 5873 5872 5871 5871 5870 5870 5869 5869 5869 5868 5868 5868 5867 5867 5867 5867 5867 5867 5867 5867 5867 5867 5867 5867 5867 5866 5866
5875 5875 5875 5875 5875 5874 5874 5874 5874 5874 5874 5874 5874 5873 5873 5872 5872 5871 5871 5870 5869 5869 5868 5868 5868 5868 5867 5867 5866 5866 5866 5866 5866 5866 5866 5866 5866 5866 5866 5866 5865 5865 5865
5874 5874 5874 5874 5874 5874 5874 5873 5873 5873 5873 5873 5873 5872 5871 5871 5871 5870 5870 5869 5869 5868 5868 5867 5867 5867 5866 5866 5865 5865 5865 5864 5864 5864 5865 5865 5864 5864 5864 5864 5864 5864 5863
5873 5874 5874 5874 5873 5873 5873 5873 5873 5873 5872 5872 5871 5870 5870 5870 5870 5869 5869 5868 5867 5867 5866 5866 5866 5865 5865 5864 5864 5864 5863 5863 5863 5863 5863 5863 5863 5863 5862 5862 5862 5862 5862
5872 5873 5873 5873 5873 5873 5872 5872 5872 5872 5872 5871 5871 5870 5870 5869 5869 5868 5867 5867 5867 5866 5865 5865 5864 5864 5863 5863 5862 5862 5862 5862 5861 5861 5861 5861 5861 5860 5860 5860 5860 5860 5860
5871 5871 5871 5872 5872 5872 5871 5871 5871 5871 5871 5870 5870 5869 5869 5868 5867 5867 5866 5866 5865 5865 5864 5863 5863 5862 5861 5861 5861 5860 5860 5860 5860 5859 5859 5859 5858 5858 5858 5858 5858 5859 5859
5870 5870 5870 5870 5870 5870 5870 5870 5870 5870 5869 5869 5869 5868 5867 5867 5866 5866 5865 5864 5864 5863 5862 5862 5861 5860 5859 5859 5859 5858 5858 5858 5857 5857 5857 5857 5856 5856 5856 5856 5856 5856 5857
5869 5869 5869 5869 5869 5869 5869 5869 5868 5868 5868 5867 5867 5866 5866 5865 5865 5864 5863 5863 5862 5861 5860 5860 5859 5858 5857 5857 5856 5856 5855 5855 5855 5855 5855 5854 5854 5854 5854 5853 5853 5854 5854
5868 5868 5868 5868 5867 5867 5867 5867 5867 5867 5866 5865 5865 5865 5864 5863 5863 5862 5861 5860 5860 5859 5858 5858 5857 5856 5856 5855 5854 5854 5853 5853 5853 5852 5852 5852 5851 5851 5851 5851 5851 5851 5852
5867 5867 5867 5866 5866 5865 5865 5865 5865 5865 5864 5864 5863 5863 5862 5861 5860 5860 5859 5858 5857 5857 5856 5855 5854 5854 5853 5853 5852 5852 5851 5850 5850 5850 5849 5849 5849 5849 5849 5849 5849 5849 5849
5866 5865 5865 5865 5864 5864 5863 5863 5863 5863 5862 5862 5861 5860 5860 5859 5858 5857 5857 5856 5855 5854 5853 5853 5852 5852 5851 5850 5850 5849 5848 5848 5847 5847 5847 5846 5846 5846 5846 5846 5846 5846 5846
5864 5864 5863 5863 5862 5862 5861 5861 5860 5860 5860 5859 5859 5858 5857 5857 5856 5855 5854 5853 5853 5852 5851 5850 5850 5849 5848 5848 5847 5846 5846 5845 5844 5844 5844 5844 5844 5844 5844 5843 5843 5844 5844
5862 5862 5861 5861 5860 5860 5859 5858 5858 5857 5857 5856 5856 5855 5855 5854 5853 5852 5852 5851 5850 5849 5848 5848 5847 5846 5846 5845 5844 5843 5843 5842 5842 5841 5841 5841 5841 5841 5841 5841 5841 5841 5841
5860 5860 5859 5859 5858 5858 5857 5856 5855 5855 5854 5854 5853 5853 5852 5851 5850 5850 5849 5848 5847 5847 5846 5845 5844 5844 5843 5842 5841 5841 5840 5839 5839 5838 5838 5837 5837 5837 5837 5837 5837 5838 5838
5858 5857 5857 5856 5856 5855 5854 5853 5853 5852 5851 5851 5850 5849 5848 5848 5847 5846 5846 5845 5844 5844 5843 5842 5842 5841 5840 5839 5838 5837 5837 5836 5835 5835 5834 5834 5834 5834 5834 5834 5834 5834 5834
5855 5855 5854 5854 5853 5852 5852 5851 5850 5849 5848 5847 5847 5846 5845 5844 5844 5843 5843 5842 5841 5840 5840 5839 5838 5838 5837 5836 5835 5834 5833 5832 5832 5831 5831 5830 5830 5830 5830 5830 5830 5831 5831
5852 5852 5852 5851 5850 5849 5848 5848 5847 5846 5845 5844 5843 5842 5842 5841 5840 5839 5839 5838 5838 5837 5836 5835 5835 5834 5833 5832 5831 5830 5829 5828 5828 5827 5827 5826 5826 5825 5825 5826 5826 5827 5827
5850 5849 5848 5848 5847 5846 5845 5844 5843 5842 5841 5840 5839 5838 5838 5837 5836 5835 5835 5834 5833 5833 5832 5831 5831 5830 5829 5828 5827 5826 5825 5824 5824 5823 5823 5822 5822 5822 5822 5822 5822 5822 5823
5846 5845 5844 5844 5843 5842 5841 5840 5839 5838 5837 5836 5835 5834 5833 5832 5831 5831 5830 5829 5829 5828 5828 5827 5826 5825 5824 5823 5822 5821 5821 5821 5819 5819 5818 5818 5818 5818 5818 5817 5818 5818 5818
5842 5841 5840 5839 5838 5838 5837 5836 5835 5834 5832 5831 5830 5829 5828 5827 5827 5826 5825 5824 5824 5823 5822 5822 5821 5820 5820 5818 5817 5817 5816 5816 5815 5815 5814 5813 5813 5813 5813 5813 5813 5813 5814
5837 5836 5836 5834 5834 5833 5831 5830 5830 5828 5827 5826 5825 5824 5823 5822 5821 5820 5819 5819 5818 5817 5817 5816 5815 5815 5814 5813 5812 5811 5811 5811 5810 5810 5809 5809 5808 5808 5808 5808 5808 5808 5809
5832 5831 5830 5829 5828 5827 5826 5825 5824 5823 5822 5821 5820 5818 5818 5817 5816 5815 5814 5813 5812 5811 5810 5810 5809 5809 5808 5807 5806 5806 5805 5805 5805 5805 5804 5804 5803 5803 5803 5803 5803 5803 5804
5826 5825 5824 5824 5823 5821 5820 5819 5818 5817 5816 5815 5814 5813 5812 5811 5810 5809 5808 5806 5805 5805 5804 5803 5802 5802 5801 5801 5800 5799 5799 5799 5799 5798 5798 5798 5798 5797 5797 5797 5797 5797 5798
Wind_Speed
1 1 1 1 1 1 1 2 2 2 1 1 2 2 2 2 2 1 2 2 2 2 2 2 2 4 4 5 5 5 5 5 5 6 6 6 5 5 5 5 5 5 5
1 1 1 1 1 1 2 2 2 2 1 1 1 1 2 2 2 2 2 2 2 2 3 3 3 4 4 5 6 5 5 5 6 6 5 5 4 4 5 5 5 5 6
1 1 1 2 2 1 2 2 2 2 2 2 2 3 3 3 3 3 3 3 2 3 4 4 4 4 5 5 5 6 5 6 6 5 5 5 5 5 5 5 5 5 6
1 1 1 2 2 1 2 2 2 2 2 2 3 4 4 4 4 4 4 4 4 4 4 4 4 4 4 4 4 5 5 6 6 6 6 6 6 6 6 6 6 6 7
1 1 2 2 2 3 2 2 2 2 2 3 3 4 5 4 4 4 4 5 5 5 4 5 5 5 5 6 6 6 6 6 6 6 6 6 7 7 7 7 7 7 7
1 2 2 2 2 3 2 2 3 3 3 4 4 5 5 5 5 5 5 5 6 5 5 5 5 6 6 6 6 7 6 6 6 7 7 7 7 7 8 8 8 8 7
2 2 3 3 3 3 3 3 3 3 4 5 5 5 4 5 5 6 6 5 5 5 6 6 6 6 7 7 7 8 7 7 7 7 7 8 8 8 8 8 9 9 8
3 3 3 3 3 3 3 4 4 4 4 5 4 4 4 5 5 6 6 6 6 7 7 7 7 8 8 8 8 8 8 8 8 9 9 9 9 9 9 10 9 9 8
4 4 4 4 4 4 5 5 5 5 5 5 5 6 6 6 6 6 6 6 7 7 7 8 8 8 8 8 9 9 9 9 9 9 9 9 10 10 10 10 10 9 9
5 5 5 5 5 5 5 6 6 6 6 6 6 6 6 6 6 7 6 6 7 8 8 8 8 8 9 9 9 9 9 10 10 9 9 10 10 11 11 11 11 10 10
5 5 5 5 5 5 5 6 6 6 6 6 7 6 6 7 7 7 7 8 8 8 8 9 8 8 8 8 9 9 9 10 11 11 10 10 10 10 11 11 11 11 11
5 5 5 6 6 6 6 6 6 7 6 7 7 7 8 8 8 8 8 9 9 9 9 9 9 8 8 8 9 9 9 10 11 10 10 10 11 11 11 11 11 11 11
6 6 6 6 7 7 7 7 7 7 7 7 8 8 8 9 9 9 9 9 9 9 10 9 9 9 9 9 10 10 10 10 10 10 10 10 11 11 11 12 12 11 11
6 6 6 6 7 7 7 7 8 8 8 8 8 9 9 9 9 9 9 9 9 10 10 9 10 10 9 10 10 11 11 11 11 10 10 11 10 10 11 12 12 12 12
6 7 6 7 8 8 8 8 9 8 8 8 9 9 9 10 10 10 10 10 10 10 10 9 10 10 11 11 11 11 11 11 11 11 11 11 11 12 12 12 12 12 12
6 7 8 8 8 8 8 9 9 9 9 9 9 9 9 10 10 10 10 11 11 10 10 10 11 11 11 11 12 12 12 12 11 11 11 11 12 12 12 13 12 12 12
7 7 8 8 9 9 9 10 10 10 10 10 10 10 10 10 11 11 12 12 12 11 11 11 11 11 11 12 12 12 12 12 11 12 12 12 12 13 13 13 13 13 13
8 8 8 9 10 10 10 10 11 11 11 11 11 12 11 11 12 12 12 13 12 12 12 11 11 11 12 13 13 12 13 13 13 13 13 12 12 13 14 14 14 14 14
9 9 9 10 11 11 11 11 12 13 13 13 13 13 12 12 12 12 13 13 13 13 13 13 13 13 13 14 13 13 14 14 14 14 14 13 14 14 15 15 15 16 15
10 10 11 12 12 12 12 13 13 14 14 14 14 14 14 14 14 14 14 14 15 14 14 15 15 15 15 15 15 14 14 14 14 15 15 15 15 16 15 16 16 16 16
11 11 12 13 13 13 13 14 15 15 15 16 16 15 15 16 16 16 16 16 16 16 16 16 16 16 16 16 16 15 15 15 15 15 16 16 17 16 16 17 16 17 17
13 13 13 14 14 14 15 16 16 17 17 17 17 17 17 17 17 17 18 18 18 18 18 17 17 17 17 17 17 17 16 16 16 16 16 16 16 17 17 17 16 16 16
14 14 15 16 16 17 17 17 18 18 18 18 18 19 18 18 18 19 19 19 20 20 20 19 18 18 18 18 18 18 17 16 16 16 16 16 17 17 17 18 17 17 17
16 16 17 17 17 18 18 18 18 19 19 18 19 19 20 19 20 20 20 21 21 21 21 21 20 20 20 20 20 20 20 19 18 18 18 18 18 18 18 18 18 18 18
18 18 18 18 19 19 20 20 20 19 20 20 20 20 20 20 20 20 21 22 22 23 22 22 22 22 22 22 22 21 22 21 20 20 20 20 20 20 20 20 20 20 19
20 20 20 20 20 20 21 21 22 21 21 21 21 21 21 22 22 22 22 23 23 23 23 24 24 24 23 23 23 23 23 23 22 22 22 21 21 21 21 21 21 21 21
Wind_Direction
14 357 2 337 341 345 336 326 322 346 5 30 31 24 12 359 353 328 316 300 284 265 269 244 211 219 231 245 247 244 245 244 242 239 239 241 241 244 239 242 239 243 242
353 320 348 358 330 324 310 315 311 306 306 316 337 338 341 340 333 319 309 313 301 282 279 268 258 236 242 247 244 242 242 248 247 245 237 232 240 247 248 243 247 245 247
360 19 36 2 346 327 306 294 306 292 284 288 295 303 305 311 311 309 303 292 291 286 283 276 276 268 256 253 246 249 248 249 247 242 232 236 244 250 249 251 252 254 253
339 11 6 343 340 306 296 288 273 284 295 292 293 295 294 294 300 300 292 291 291 289 290 290 289 288 278 267 258 254 252 247 249 246 238 237 243 253 257 257 257 253 256
326 321 314 315 315 316 309 302 294 292 294 298 294 293 292 291 292 297 291 288 287 290 292 291 292 284 282 279 272 261 259 252 249 250 248 248 251 254 257 260 261 259 258
294 287 278 276 291 303 300 309 311 306 304 302 305 305 291 290 293 292 297 291 288 292 291 295 293 284 281 278 273 271 269 264 259 257 256 255 256 258 259 259 260 261 260
278 271 272 275 280 285 282 289 290 295 301 307 310 312 299 292 295 302 296 298 294 289 293 294 293 291 290 283 278 277 277 274 270 266 259 258 257 259 262 263 261 258 260
273 264 266 272 279 283 279 284 292 290 293 299 302 301 304 289 295 307 302 297 294 294 294 294 294 291 291 286 278 277 275 273 274 273 268 264 263 263 263 263 259 255 257
268 265 265 272 282 279 276 277 282 284 286 291 294 299 300 297 296 296 298 298 298 298 297 295 296 292 287 284 279 274 273 271 273 273 268 265 263 264 261 257 253 257 258
279 276 271 275 278 278 276 281 284 283 285 287 291 296 299 299 298 298 296 297 294 293 293 295 296 293 290 284 277 274 270 268 270 270 270 266 264 263 260 256 253 254 257
285 280 276 278 283 280 279 278 280 282 284 286 288 290 291 293 294 295 294 296 295 295 294 295 295 297 293 286 280 276 273 271 272 270 270 269 266 263 260 258 254 254 254
288 282 277 278 281 281 281 279 280 279 278 284 287 290 292 293 293 293 292 293 295 293 294 292 290 293 290 286 281 279 278 275 274 271 267 263 263 264 262 260 258 253 251
299 298 298 287 282 278 280 281 279 277 275 282 286 287 289 293 295 296 297 296 294 294 293 290 290 289 287 284 280 279 281 278 274 270 265 261 261 262 260 261 257 252 250
300 302 295 295 294 289 289 290 285 283 282 282 287 287 288 292 293 292 294 294 294 294 291 290 288 286 285 282 280 280 280 278 275 272 266 261 260 259 257 257 254 252 253
303 304 303 304 302 298 295 294 292 289 286 279 278 282 285 288 287 288 288 290 293 294 293 291 287 284 284 285 284 281 281 282 277 274 271 267 263 260 259 260 258 257 258
301 301 303 304 301 299 295 295 293 290 288 284 280 278 280 282 283 286 287 289 292 293 293 293 292 288 288 286 284 283 282 280 276 274 271 266 261 259 259 259 261 263 262
300 300 301 300 300 300 299 298 296 294 290 288 287 284 281 280 280 283 285 287 289 289 290 291 291 290 288 288 285 285 283 280 276 273 272 269 263 261 261 260 260 260 260
299 299 298 298 302 303 301 301 300 297 293 289 288 288 287 286 287 285 284 285 287 288 288 287 287 288 288 287 286 286 285 281 277 275 273 268 265 264 263 261 259 257 260
295 294 296 296 298 299 297 299 299 298 296 293 289 286 286 286 286 285 285 285 285 286 286 286 286 286 287 286 284 284 283 282 280 278 273 268 266 265 263 259 258 258 259
294 292 292 293 294 294 296 298 298 297 294 293 290 285 284 283 283 281 282 283 283 283 283 284 285 284 284 284 285 283 280 279 278 276 273 270 266 265 264 261 260 260 260
292 291 290 290 290 291 294 296 297 295 292 290 289 286 284 282 282 281 280 282 281 281 281 282 283 283 282 282 284 282 279 278 278 274 270 267 266 264 264 263 260 259 260
290 290 288 287 287 288 290 292 293 293 290 288 288 287 285 283 282 281 281 281 280 280 279 279 281 282 284 283 283 282 279 276 275 275 270 263 262 262 263 262 259 260 259
285 287 287 286 286 286 287 289 291 291 290 289 289 287 285 284 283 281 279 279 279 279 279 279 279 279 281 283 282 280 279 278 277 274 271 266 263 264 265 262 261 262 262
284 284 286 286 285 284 286 287 288 290 291 289 288 286 284 284 283 283 281 280 279 278 277 276 277 278 278 279 279 277 275 274 274 273 272 270 268 267 267 265 263 262 261
285 283 285 284 284 284 284 285 286 288 290 289 287 287 286 285 285 284 283 283 281 278 276 275 274 275 276 276 276 274 273 272 271 271 272 271 270 269 268 265 262 260 260
284 284 284 286 286 286 285 284 284 286 287 287 286 285 285 285 286 286 285 284 282 280 278 276 275 274 274 274 273 272 271 271 270 270 271 270 269 269 268 266 263 261 260